• In Belarus
  • List of Countries
  • For 7 days
  • Water Temperature
  • Weather Map
  • Weather Widgets
  • user-avatar
    Login

    Hourly Weather Kecskemet

    Today, 20 September, Friday

    Time Temperature Precipitation Wind Pressure Humidity
    00:00 +9°C° 0 mm 3 mps 758 mmHg 56%
    01:00 +9°C° 0 mm 3 mps 758 mmHg 59%
    02:00 +8°C° 0 mm 3 mps 758 mmHg 62%
    03:00 +8°C° 0 mm 3 mps 758 mmHg 65%
    04:00 +7°C° 0 mm 3 mps 758 mmHg 68%
    05:00 +8°C° 0 mm 2 mps 758 mmHg 66%
    06:00 +9°C° 0 mm 2 mps 759 mmHg 64%
    07:00 +9°C° 0 mm 2 mps 759 mmHg 61%
    08:00 +12°C° 0 mm 2 mps 759 mmHg 54%
    09:00 +14°C° 0 mm 2 mps 759 mmHg 46%
    10:00 +16°C° 0 mm 2 mps 760 mmHg 38%
    11:00 +17°C° 0 mm 2 mps 759 mmHg 36%
    12:00 +17°C° 0 mm 2 mps 759 mmHg 33%
    13:00 +18°C° 0 mm 2 mps 759 mmHg 30%
    14:00 +18°C° 0 mm 2 mps 758 mmHg 29%
    15:00 +18°C° 0 mm 2 mps 758 mmHg 28%
    16:00 +18°C° 0 mm 2 mps 758 mmHg 28%
    17:00 +17°C° 0 mm 2 mps 758 mmHg 31%
    18:00 +15°C° 0 mm 2 mps 758 mmHg 34%
    19:00 +13°C° 0 mm 1 mps 758 mmHg 38%
    20:00 +13°C° 0 mm 1 mps 758 mmHg 39%
    21:00 +12°C° 0 mm 1 mps 759 mmHg 41%
    22:00 +12°C° 0 mm 1 mps 759 mmHg 42%
    23:00 +11°C° 0 mm 1 mps 759 mmHg 44%

    Tomorrow, 21 September, Saturday

    Time Temperature Precipitation Wind Pressure Humidity
    00:00 +11°C° 0 mm 1 mps 759 mmHg 47%
    01:00 +10°C° 0 mm 1 mps 759 mmHg 49%
    02:00 +10°C° 0 mm 1 mps 759 mmHg 51%
    03:00 +9°C° 0 mm 1 mps 759 mmHg 52%
    04:00 +9°C° 0 mm 1 mps 759 mmHg 54%
    05:00 +10°C° 0 mm 1 mps 759 mmHg 53%
    06:00 +11°C° 0 mm 1 mps 759 mmHg 51%
    07:00 +12°C° 0 mm 1 mps 759 mmHg 49%
    08:00 +14°C° 0 mm 1 mps 759 mmHg 44%
    09:00 +16°C° 0 mm 1 mps 759 mmHg 40%
    10:00 +17°C° 0 mm 0 mps 760 mmHg 35%
    11:00 +20°C° 0 mm 1 mps 759 mmHg 32%
    12:00 +21°C° 0 mm 1 mps 759 mmHg 30%
    13:00 +20°C° 0 mm 2 mps 758 mmHg 28%
    14:00 +21°C° 0 mm 1 mps 758 mmHg 28%
    15:00 +22°C° 0 mm 1 mps 757 mmHg 27%
    16:00 +22°C° 0 mm 1 mps 757 mmHg 27%
    17:00 +20°C° 0 mm 1 mps 757 mmHg 31%
    18:00 +18°C° 0 mm 1 mps 757 mmHg 34%
    19:00 +15°C° 0 mm 2 mps 757 mmHg 38%
    20:00 +15°C° 0 mm 2 mps 757 mmHg 39%
    21:00 +14°C° 0 mm 2 mps 757 mmHg 40%
    22:00 +13°C° 0 mm 2 mps 756 mmHg 41%
    23:00 +13°C° 0 mm 2 mps 756 mmHg 42%

    Day after tomorrow, 22 September, Sunday

    Time Temperature Precipitation Wind Pressure Humidity
    00:00 +13°C° 0 mm 2 mps 756 mmHg 42%
    01:00 +12°C° 0 mm 2 mps 756 mmHg 43%
    02:00 +12°C° 0 mm 2 mps 756 mmHg 44%
    03:00 +10°C° 0 mm 2 mps 755 mmHg 45%
    04:00 +10°C° 0 mm 2 mps 755 mmHg 46%
    05:00 +12°C° 0 mm 2 mps 755 mmHg 45%
    06:00 +12°C° 0 mm 2 mps 755 mmHg 44%
    07:00 +12°C° 0 mm 3 mps 755 mmHg 44%
    08:00 +16°C° 0 mm 3 mps 755 mmHg 38%
    09:00 +18°C° 0 mm 3 mps 755 mmHg 33%
    10:00 +21°C° 0 mm 4 mps 755 mmHg 28%
    11:00 +22°C° 0 mm 4 mps 754 mmHg 25%
    12:00 +23°C° 0 mm 4 mps 753 mmHg 23%
    13:00 +25°C° 0 mm 3 mps 753 mmHg 20%
    14:00 +25°C° 0 mm 3 mps 752 mmHg 20%
    15:00 +25°C° 0 mm 3 mps 752 mmHg 20%
    16:00 +26°C° 0 mm 3 mps 751 mmHg 20%
    17:00 +24°C° 0 mm 3 mps 751 mmHg 23%
    18:00 +21°C° 0 mm 3 mps 751 mmHg 25%
    19:00 +19°C° 0 mm 3 mps 751 mmHg 28%
    20:00 +19°C° 0 mm 3 mps 750 mmHg 27%
    21:00 +19°C° 0 mm 3 mps 750 mmHg 27%
    22:00 +19°C° 0 mm 3 mps 750 mmHg 26%
    23:00 +19°C° 0 mm 3 mps 750 mmHg 27%

    23 September, Monday

    Time Temperature Precipitation Wind Pressure Humidity
    00:00 +19°C° 0 mm 3 mps 750 mmHg 27%
    01:00 +18°C° 0 mm 3 mps 749 mmHg 28%
    02:00 +18°C° 0 mm 3 mps 749 mmHg 28%
    03:00 +18°C° 0 mm 3 mps 749 mmHg 29%
    04:00 +18°C° 0 mm 2 mps 749 mmHg 29%
    05:00 +18°C° 0.1 mm 3 mps 749 mmHg 32%
    06:00 +17°C° 0.1 mm 4 mps 748 mmHg 36%
    07:00 +17°C° 0.1 mm 4 mps 748 mmHg 39%
    08:00 +17°C° 0.1 mm 4 mps 748 mmHg 40%
    09:00 +18°C° 0.1 mm 3 mps 749 mmHg 41%
    10:00 +18°C° 0.1 mm 3 mps 749 mmHg 42%
    11:00 +17°C° 0.9 mm 3 mps 748 mmHg 53%
    12:00 +15°C° 0.9 mm 4 mps 748 mmHg 64%
    13:00 +13°C° 0.9 mm 4 mps 748 mmHg 75%
    14:00 +13°C° 1 mm 4 mps 748 mmHg 78%
    15:00 +13°C° 1 mm 4 mps 747 mmHg 81%
    16:00 +13°C° 1 mm 4 mps 747 mmHg 84%
    17:00 +13°C° 0.4 mm 4 mps 747 mmHg 85%
    18:00 +13°C° 0.4 mm 4 mps 747 mmHg 85%
    19:00 +12°C° 0.4 mm 4 mps 747 mmHg 86%
    20:00 +12°C° 0 mm 4 mps 747 mmHg 86%
    21:00 +12°C° 0 mm 3 mps 747 mmHg 86%
    22:00 +13°C° 0 mm 3 mps 747 mmHg 86%
    23:00 +12°C° 0.2 mm 3 mps 747 mmHg 87%

    24 September, Tuesday

    Time Temperature Precipitation Wind Pressure Humidity
    00:00 +12°C° 0.2 mm 4 mps 747 mmHg 89%
    01:00 +12°C° 0.2 mm 4 mps 747 mmHg 90%
    02:00 +12°C° 0.2 mm 4 mps 747 mmHg 91%
    03:00 +12°C° 0.2 mm 4 mps 747 mmHg 91%
    04:00 +12°C° 0.2 mm 4 mps 746 mmHg 91%
    05:00 +13°C° 0.1 mm 4 mps 747 mmHg 90%
    06:00 +13°C° 0.1 mm 4 mps 747 mmHg 89%
    07:00 +13°C° 0.1 mm 4 mps 747 mmHg 87%
    08:00 +14°C° 0 mm 4 mps 747 mmHg 85%
    09:00 +14°C° 0 mm 4 mps 747 mmHg 83%
    10:00 +15°C° 0 mm 4 mps 748 mmHg 80%
    11:00 +17°C° 0 mm 4 mps 748 mmHg 77%
    12:00 +17°C° 0 mm 3 mps 748 mmHg 74%
    13:00 +18°C° 0 mm 3 mps 748 mmHg 71%
    14:00 +18°C° 0 mm 3 mps 748 mmHg 72%
    15:00 +17°C° 0 mm 2 mps 748 mmHg 72%
    16:00 +17°C° 0 mm 2 mps 748 mmHg 73%
    17:00 +18°C° 0 mm 1 mps 748 mmHg 75%
    18:00 +16°C° 0 mm 1 mps 748 mmHg 76%
    19:00 +16°C° 0 mm 1 mps 748 mmHg 77%
    20:00 +16°C° 0 mm 1 mps 748 mmHg 78%
    21:00 +16°C° 0 mm 1 mps 748 mmHg 79%
    22:00 +15°C° 0 mm 1 mps 749 mmHg 80%
    23:00 +15°C° 0 mm 1 mps 749 mmHg 80%

    25 September, Wednesday

    Time Temperature Precipitation Wind Pressure Humidity
    00:00 +15°C° 0 mm 1 mps 749 mmHg 80%
    01:00 +15°C° 0 mm 1 mps 749 mmHg 81%
    02:00 +15°C° 0 mm 1 mps 749 mmHg 81%
    03:00 +15°C° 0 mm 1 mps 749 mmHg 80%
    04:00 +15°C° 0 mm 1 mps 749 mmHg 80%
    05:00 +15°C° 0 mm 1 mps 749 mmHg 80%
    06:00 +16°C° 0 mm 1 mps 749 mmHg 79%
    07:00 +16°C° 0 mm 1 mps 749 mmHg 79%
    08:00 +18°C° 0 mm 1 mps 749 mmHg 74%
    09:00 +17°C° 0 mm 0 mps 750 mmHg 69%
    10:00 +18°C° 0 mm 0 mps 750 mmHg 64%
    11:00 +19°C° 0 mm 0 mps 750 mmHg 59%
    12:00 +23°C° 0 mm 1 mps 749 mmHg 54%
    13:00 +24°C° 0 mm 1 mps 749 mmHg 49%
    14:00 +24°C° 0 mm 1 mps 749 mmHg 49%
    15:00 +24°C° 0 mm 1 mps 749 mmHg 48%
    16:00 +24°C° 0 mm 1 mps 749 mmHg 48%
    17:00 +22°C° 0 mm 1 mps 749 mmHg 53%
    18:00 +20°C° 0 mm 2 mps 749 mmHg 58%
    19:00 +19°C° 0 mm 2 mps 749 mmHg 63%
    20:00 +18°C° 0 mm 2 mps 749 mmHg 65%
    21:00 +18°C° 0 mm 2 mps 749 mmHg 67%
    22:00 +18°C° 0 mm 2 mps 749 mmHg 69%
    23:00 +17°C° 0 mm 2 mps 749 mmHg 70%
    Show more